星链-34502 (STARLINK-34502)

导读

STARLINK-34502是美国SpaceX星链星座的一员,于2025年6月28日发射升空。作为星链卫星互联网项目的组网卫星,它承担着为全球提供高速低延迟互联网服务的任务,覆盖偏远地区、海洋空域等网络空白区域,进一步扩充了星链星座的规模,助力SpaceX实现全球卫星互联网络布局。

Basic Information
目录编号:
64680
目录名称:
STARLINK-34502
国际标识:
2025-139S
轨道中心:
EARTH
卫星名称:
星链-34502
卫星全名:
星链-34502 (STARLINK-34502)
卫星状态:
在轨 (已飞行433 天)
发射日期:
2025-06-28 UTC
国别 :
美国 (US)
星等 :
--
Orbit Information
数据来源 国际轨道数据
星历时间: 2026-09-04T01:55:23+0800
13小时前
查看轨道信息
半长轴: 6840.858km
偏心率: 0.0001075
轨道倾角: 53.160°
近地点辐角 75.898°
升交点赤经 15.852°
平近点角 284.214°
近地点: 461.985km
远地点: 463.457km
周期: 93.848分钟
每日圈数: 15.343942
Detailed Information
固有亮度:
5
最大亮度:
2.5
卫星平台:
Starlink V1.0
覆盖范围:
全球
运营商:
太空探索技术公司
运营商所在国:
美国
制造商(研发单位):
太空探索技术公司
制造商所在国:
美国
使用方式:
暂无
Satellite Introduction
Starlink 计划是 SpaceX 推出的全球卫星互联网项目,通过发射低轨道卫星,为全球尤其是偏远地区提供高速、低延迟的互联网服务。自 2019 年起,Starlink 已部署数千颗卫星,旨在缩小全球数字鸿沟,推动互联网普及。该项目还为军事、航空等行业提供通信支持,带来广泛经济效益。
2D Orbit Map
3D Orbit Map
Orbit Altitude Analysis Chart
Orbit Inclination Analysis Chart
Orbit Comprehensive Analysis Chart
View Comprehensive Chart
Conjunction Data List
Event ID Objects TCA Miss Dist (km) Collision Risk Probability Collision Risk Index (CRI) Action
CDM_260905-065506-468006-806221
2026-09-05T
06:55:58+0000
0.607 km
远距离
8.357486E-5 中风险 0.73
CDM_260905-082906-468006-806221
2026-09-05T
08:29:46+0000
1.554 km
极远距离
3.845219E-6 低风险 0.47
CDM_260905-052206-468006-806221
2026-09-05T
05:22:11+0000
1.746 km
极远距离
2.716944E-6 低风险 0.44